Regional Weather Roundup
Issued by NWS State College, PA

Home | Current Version | Previous Version | Text Only | Print | Product List | Glossary On
Versions: 1 2 3 4 5 6 7 8 9 10 11 12 13 14 15 16 17 18 19 20 21 22 23 24 25 26 27 28 29 30 31 32 33 34 35 36 37 38 39 40 41 42 43 44 45 46 47 48 49 50
000
ASUS41 KCTP 311810
RWRCTP

REGIONAL WEATHER ROUNDUP
NATIONAL WEATHER SERVICE STATE COLLEGE PA
100 PM EST SAT JAN 31 2015

Note: "fair" indicates few or no clouds below 12,000 feet with no
significant weather and/or obstructions to visibility.

* = STATION THAT DOES NOT REPORT PRECIPITATION /E.G. RAIN...SNOW...ETC/
    THUNDER OR FOG.

PAZ002>004-007>009-013>016-020>023-029>032-311900-
WESTERN PENNSYLVANIA

CITY           SKY/WX    TMP DP  RH WIND       PRES   REMARKS
ERIE           CLOUDY    22  10  60 SW12      30.27F WCI  10
MEADVILLE      CLOUDY    19  11  70 W9        30.23F WCI   8
FRANKLIN*      PTSUNNY   19   9  63 W8        30.24F WCI   9
NEW CASTLE     CLOUDY    23  12  62 S8        30.29F WCI  14
BEAVER COUNTY  CLOUDY    27  14  59 SW8       30.27F
BUTLER*        MOSUNNY   21  10  63 SW13      30.28F WCI   9
PITTSBURGH INT PTSUNNY   23  13  65 W7        30.28F WCI  15
PITTSBURGH     PTSUNNY   22   9  57 W10       30.27F WCI  11
INDIANA*       CLOUDY    19  10  68 W8        30.29F WCI   9
LATROBE        MOSUNNY   21  10  63 W14       30.31F WCI   8
WASHINGTON CO* MOSUNNY   25  12  58 W6        30.30F
$$

PAZ004>006-010>012-017>019-024>028-033>037-041-042-045-046-049>053-311900-
CENTRAL PENNSYLVANIA

CITY           SKY/WX    TMP DP  RH WIND       PRES   REMARKS
BRADFORD       MOSUNNY   16   5  62 NW14      30.14F WCI   2
DUBOIS         MOSUNNY   16   8  71 W14       30.18F WCI   2
CLEARFIELD     CLOUDY    18   6  59 W12       30.22F WCI   5
JOHNSTOWN      PTSUNNY   16   8  71 W12G21    30.15F WCI   3
ALTOONA        SUNNY     37   7  28 W12       30.22F
STATE COLLEGE  MOSUNNY   19   7  58 NW9       30.22F WCI   9
WILLIAMSPORT   SUNNY     23   4  44 N8        30.23F WCI  14
SELINSGROVE    SUNNY     23   6  48 NW12      30.26F WCI  12
FT INDIANTOWN  SUNNY     22   4  44 W13       30.24F WCI  10
CAPITAL CITY   SUNNY     24   5  44 NW13G21   30.26F WCI  12
HARRISBURG     MOSUNNY   22   7  52 NW10      30.26F WCI  11
YORK           SUNNY     22   6  50 NW13      30.26F WCI  10
$$

PAZ038>040-043-044-047-048-054-055-060>062-067>071-311900-
EASTERN PENNSYLVANIA

CITY           SKY/WX    TMP DP  RH WIND       PRES   REMARKS
SCRANTON       MOSUNNY   18   2  49 NW20G28   30.17F WCI   2
MOUNT POCONO   SUNNY     14   0  53 NW22G32   30.01F WCI  -4
ALLENTOWN      SUNNY     23   2  40 NW14G23   30.18F WCI  11
QUAKERTOWN*    CLEAR     19   3  49 NW12G22   30.18F WCI   7
READING        SUNNY     22   6  50 NW17G28   30.22F WCI   8
LANCASTER      SUNNY     22   5  48 NW15      30.24F WCI   9
COATESVILLE    CLEAR     23   7  50 NW9       30.21F WCI  13
POTTSTOWN      SUNNY     22   4  46 NW16G24   30.21F WCI   8
BLUE BELL      SUNNY     27   5  39 NW9G18    30.19F
DOYLESTOWN     SUNNY     21   3  45 NW14G26   30.16F WCI   8
WILLOW GROVE   NOT AVBL
NORTH PHILA    SUNNY     25   1  35 NW18G25   30.21F WCI  11
PHILADELPHIA   SUNNY     26   1  34 NW17      30.23F WCI  13
$$


USA.gov is the U.S. government's official web portal to all federal, state and local government web resources and services.